Regional Weather Roundup
Issued by NWS Albany, NY

Home | Current Version | Previous Version | Text Only | Print | Product List | Glossary On
Versions: 1 2 3 4 5 6 7 8 9 10 11 12 13 14 15 16 17 18 19 20 21 22 23 24 25 26 27 28
000
ASUS41 KALY 230010
RWRALY

NEW YORK STATE HOURLY WEATHER ROUNDUP
NATIONAL WEATHER SERVICE ALBANY NY
800 PM EDT THU JUN 22 2017

NOTE: "FAIR" INDICATES FEW OR NO CLOUDS BELOW 12,000 FEET WITH NO
SIGNIFICANT WEATHER AND/OR NO OBSTRUCTIONS TO VISIBILITY.

NYZ032-033-038>043-046>054-057>066-NYZ062>081-082-084-230100-
EAST


CITY           SKY/WX    TMP DP  RH WIND       PRES   REMARKS
ALBANY         CLOUDY    78  59  51 CALM      29.88F
GLENS FALLS    CLOUDY    74  57  55 SW5       29.87F
POUGHKEEPSIE   CLOUDY    80  64  58 SE3       29.88R
NEWBURGH       MOCLDY    81  66  61 SW7       29.91S
MONTGOMERY     PTCLDY    80  65  59 CALM      29.89R
ISLIP          MOCLDY    74  65  73 SW9       29.93R
NEW YORK CITY  MOCLDY    78  67  68 S9        29.90S
CENTRAL PARK   CLEAR     79  64  60 CALM      29.93R
$$

NYZ005>009-017-018-044>046-055-056-230100-
CENTRAL


CITY           SKY/WX    TMP DP  RH WIND       PRES   REMARKS
FULTON         CLOUDY    72  59  63 CALM      29.84F
SYRACUSE       PTCLDY    72  59  63 E5        29.83F
ROME           CLOUDY    72  59  63 E7        29.87F
ELMIRA         CLEAR     79  70  73 W6        29.89S
BINGHAMTON     PTCLDY    75  63  64 W14G23    29.92F
MONTICELLO     CLEAR     77  63  61 CALM      29.95F
$$

NYZ026>034-041>043-087-230100-
NORTH


CITY           SKY/WX    TMP DP  RH WIND       PRES   REMARKS
WATERTOWN      CLOUDY    70  62  76 CALM      29.82F
FORT DRUM      NOT AVBL
OGDENSBURG     CLOUDY    70  57  62 CALM      29.83F
MASSENA        MOCLDY    72  56  57 SW6       29.85S
SARANAC LAKE   CLOUDY    67  53  61 SW7       29.89F
PLATTSBURGH    CLOUDY    74  55  51 CALM      29.84F
$$

NYZ001>004-010>016-019>021-085-230100-
WEST


CITY           SKY/WX    TMP DP  RH WIND       PRES   REMARKS
NIAGARA FALLS  PTCLDY    80  64  58 SW14      29.82F
BUFFALO        MOCLDY    77  66  68 SW12      29.84F
DUNKIRK        CLOUDY    79  69  71 S6        29.85F
JAMESTOWN      CLOUDY    73  66  78 S6        29.93F
WELLSVILLE     CLOUDY    74  67  78 SW6       29.97F
ROCHESTER      CLOUDY    79  68  69 SW9       29.83F
PENN YAN       PTCLDY    79  64  60 S8        29.88S
$$

             KEY
       WCI = WIND CHILL INDEX
       VSB = VISIBILITY
       HX  = HEAT INDEX
$$




USA.gov is the U.S. government's official web portal to all federal, state and local government web resources and services.